There are multiple Weather-warnings   Click here for more information


Meteo18 Weather Cam more information Meteo18 Weather Cam


Thunder radar more information blitzortung!


warning for Snow/Ice more information rain snow radar


Visit our other weather sites:

Template documentation
and downloads

And another site



Weather Underground History page Text

Daily Summary for February 27, 2017 Units:  Metric    English   Both
« Previous Day
Next Day »
Daily Weekly Monthly Yearly Custom
  High: Low: Average:
Temperature: -17.8 °C -14.7 °C -12.4 °C
Dew Point: -17.8 °C -15.9 °C -14.1 °C
Humidity: Humidity % 66 % 82 %
Wind Speed: 0 km/h 7.7 km/h 30.9 km/h
Wind Gust: 0 km/h - -
Wind:- - SW
Pressure: 0 hPa 33866.8 hPa -
Precipitation: 160.02 mm    
Historical Graphs
 
 
Tabular Data for February 27, 2017
Time Temperature Dew Point Pressure Wind Wind Speed Wind Gust Humidity Rainfall Rate (Hourly)
-17.8 °C -17.8 °C 0 hPa Calm     Humidity % 0 mm
00:02 -12.6 °C -13.5 °C 34361.1 hPa SSW 18.2 km/h 23.3 km/h 89 % 0 mm
00:12 -12.6 °C -13.5 °C 34361.1 hPa SSW 12.9 km/h 23.3 km/h 89 % 0 mm
00:17 -12.6 °C -13.5 °C 34361.1 hPa SW 10.3 km/h 25.9 km/h 89 % 0 mm
00:22 -12.6 °C -13.5 °C 34361.1 hPa SSW 10.3 km/h 25.9 km/h 89 % 0 mm
00:32 -12.6 °C -13.5 °C 34361.1 hPa SW 20.8 km/h 23.3 km/h 89 % 0 mm
00:37 -12.5 °C -13.6 °C 34361.1 hPa SSW 12.9 km/h 23.3 km/h 88 % 0 mm
00:42 -12.4 °C -13.5 °C 34361.1 hPa SW 10.3 km/h 25.9 km/h 88 % 0 mm
00:47 -12.4 °C -13.5 °C 34347.6 hPa SSW 18.2 km/h 25.9 km/h 88 % 0 mm
00:52 -12.4 °C -13.4 °C 34347.6 hPa SW 12.9 km/h 31.1 km/h 88 % 0 mm
00:57 -12.4 °C -13.5 °C 34347.6 hPa SSW 15.6 km/h 31.1 km/h 88 % 0 mm
01:02 -12.4 °C -13.5 °C 34347.6 hPa SW 10.3 km/h 28.5 km/h 88 % 0 mm
01:12 -12.4 °C -13.5 °C 34347.6 hPa SW 18.2 km/h 25.9 km/h 88 % 0 mm
01:17 -12.4 °C -13.5 °C 34347.6 hPa SSW 15.6 km/h 25.9 km/h 88 % 0 mm
01:22 -12.5 °C -13.6 °C 34347.6 hPa SSW 18.2 km/h 25.9 km/h 88 % 0 mm
01:32 -12.5 °C -13.6 °C 34337.4 hPa SSW 15.6 km/h 25.9 km/h 88 % 0 mm
01:37 -12.5 °C -13.6 °C 34337.4 hPa SW 10.3 km/h 31.1 km/h 88 % 0 mm
01:42 -12.5 °C -13.6 °C 34337.4 hPa SW 15.6 km/h 31.1 km/h 88 % 0 mm
01:47 -12.5 °C -13.6 °C 34337.4 hPa SSW 12.9 km/h 31.1 km/h 88 % 0 mm
01:52 -12.5 °C -13.6 °C 34327.3 hPa South 12.9 km/h 33.6 km/h 88 % 0 mm
01:57 -12.6 °C -13.5 °C 34337.4 hPa SSW 10.3 km/h 33.6 km/h 89 % 0 mm
02:02 -12.6 °C -13.5 °C 34327.3 hPa SW 23.3 km/h 33.6 km/h 89 % 0 mm
02:12 -12.6 °C -13.6 °C 34327.3 hPa SSW 7.7 km/h 25.9 km/h 89 % 0 mm
02:17 -12.6 °C -13.6 °C 34327.3 hPa SSW 28.5 km/h 28.5 km/h 89 % 0 mm
02:22 -12.6 °C -13.6 °C 34327.3 hPa SSW 10.3 km/h 25.9 km/h 89 % 0 mm
02:32 -12.6 °C -13.7 °C 34313.7 hPa SW 28.5 km/h 31.1 km/h 88 % 0 mm
02:42 -12.6 °C -13.6 °C 34313.7 hPa South 20.8 km/h 33.6 km/h 88 % 0 mm
02:47 -12.6 °C -13.7 °C 34313.7 hPa South 12.9 km/h 33.6 km/h 87 % 0 mm
02:52 -12.6 °C -13.7 °C 34303.6 hPa SSW 18.2 km/h 33.6 km/h 87 % 0 mm
03:02 -12.6 °C -13.6 °C 34303.6 hPa SW 12.9 km/h 33.6 km/h 88 % 0 mm
03:12 -12.6 °C -13.7 °C 34293.4 hPa SW 10.3 km/h 25.9 km/h 88 % 0 mm
03:17 -12.6 °C -13.7 °C 34293.4 hPa SW 18.2 km/h 25.9 km/h 88 % 0 mm
03:22 -12.6 °C -13.7 °C 34293.4 hPa SSW 20.8 km/h 25.9 km/h 88 % 0 mm
03:27 -12.6 °C -13.7 °C 34293.4 hPa SSW 15.6 km/h 28.5 km/h 88 % 0 mm
03:32 -12.6 °C -13.6 °C 34279.9 hPa SW 12.9 km/h 28.5 km/h 88 % 0 mm
03:42 -12.6 °C -13.7 °C 34279.9 hPa SW 20.8 km/h 36.2 km/h 87 % 0 mm
03:47 -12.6 °C -13.8 °C 34269.7 hPa SSW 23.3 km/h 36.2 km/h 87 % 0 mm
03:52 -12.6 °C -13.7 °C 34269.7 hPa SSW 15.6 km/h 36.2 km/h 88 % 0 mm
03:57 -12.6 °C -13.7 °C 34269.7 hPa SW 18.2 km/h 36.2 km/h 88 % 0 mm
04:02 -12.6 °C -13.7 °C 34269.7 hPa SSW 20.8 km/h 33.6 km/h 88 % 0 mm
04:12 -12.6 °C -13.7 °C 34256.2 hPa SSW 28.5 km/h 28.5 km/h 88 % 0 mm
04:17 -12.7 °C -13.7 °C 34256.2 hPa SSW 31.1 km/h 33.6 km/h 88 % 0 mm
04:22 -12.6 °C -13.7 °C 34256.2 hPa SW 15.6 km/h 33.6 km/h 88 % 0 mm
04:27 -12.7 °C -13.7 °C 34256.2 hPa SSW 20.8 km/h 38.8 km/h 88 % 0 mm
04:32 -12.7 °C -13.7 °C 34256.2 hPa SSW 25.9 km/h 38.8 km/h 88 % 0 mm
04:42 -12.6 °C -13.7 °C 34256.2 hPa SSW 15.6 km/h 33.6 km/h 88 % 0 mm
04:47 -12.6 °C -13.8 °C 34256.2 hPa SSW 25.9 km/h 33.6 km/h 87 % 0 mm
04:52 -12.6 °C -13.8 °C 34246 hPa South 20.8 km/h 36.2 km/h 87 % 0 mm
04:57 -12.6 °C -13.8 °C 34246 hPa South 18.2 km/h 41.4 km/h 86 % 0 mm
05:02 -12.5 °C -13.7 °C 34246 hPa SW 20.8 km/h 41.4 km/h 86 % 0 mm
05:12 -12.4 °C -13.8 °C 34246 hPa SW 23.3 km/h 44.1 km/h 85 % 0 mm
05:17 -12.4 °C -13.8 °C 34246 hPa South 12.9 km/h 44.1 km/h 85 % 0 mm
05:22 -12.6 °C -13.8 °C 34235.8 hPa SSW 20.8 km/h 44.1 km/h 86 % 0 mm
05:27 -12.6 °C -13.8 °C 34235.8 hPa South 23.3 km/h 38.8 km/h 86 % 0 mm
05:32 -12.6 °C -13.8 °C 34235.8 hPa South 25.9 km/h 38.8 km/h 86 % 0 mm
05:37 -12.6 °C -13.8 °C 34235.8 hPa SSW 36.2 km/h 38.8 km/h 86 % 0 mm
05:42 -12.6 °C -13.8 °C 34235.8 hPa SW 28.5 km/h 38.8 km/h 86 % 0 mm
05:52 -12.6 °C -13.8 °C 34235.8 hPa SSW 25.9 km/h 41.4 km/h 86 % 0 mm
05:57 -12.6 °C -13.8 °C 34235.8 hPa SSW 12.9 km/h 44.1 km/h 86 % 0 mm
06:02 -12.6 °C -13.8 °C 34235.8 hPa SW 18.2 km/h 44.1 km/h 86 % 0 mm
06:12 -12.6 °C -13.8 °C 34212.1 hPa SSW 18.2 km/h 44.1 km/h 86 % 0 mm
06:17 -12.6 °C -13.9 °C 34212.1 hPa SW 33.6 km/h 38.8 km/h 85 % 0 mm
06:22 -12.6 °C -13.9 °C 34212.1 hPa SSW 18.2 km/h 38.8 km/h 85 % 0 mm
06:27 -12.6 °C -13.9 °C 34212.1 hPa SSW 31.1 km/h 38.8 km/h 85 % 0 mm
06:32 -12.6 °C -13.9 °C 34212.1 hPa South 12.9 km/h 38.8 km/h 85 % 0 mm
06:42 -12.6 °C -13.9 °C 34212.1 hPa SSW 20.8 km/h 38.8 km/h 85 % 0 mm
06:52 -12.7 °C -14 °C 34212.1 hPa SW 15.6 km/h 36.2 km/h 85 % 0 mm
06:57 -12.7 °C -14 °C 34212.1 hPa SSW 20.8 km/h 36.2 km/h 85 % 0 mm
07:02 -12.7 °C -14 °C 34212.1 hPa SSW 23.3 km/h 33.6 km/h 85 % 0 mm
07:12 -12.7 °C -14 °C 34198.6 hPa SSW 20.8 km/h 33.6 km/h 85 % 0 mm
07:17 -12.7 °C -14 °C 34198.6 hPa South 20.8 km/h 33.6 km/h 85 % 0 mm
07:22 -12.6 °C -13.9 °C 34198.6 hPa SSW 25.9 km/h 33.6 km/h 85 % 0 mm
07:27 -12.7 °C -14 °C 34188.4 hPa SSW 20.8 km/h 33.6 km/h 85 % 0 mm
07:32 -12.7 °C -14 °C 34188.4 hPa SSW 15.6 km/h 33.6 km/h 85 % 0 mm
07:42 -12.7 °C -14 °C 34188.4 hPa SSW 12.9 km/h 33.6 km/h 85 % 0 mm
07:47 -12.7 °C -14.1 °C 34188.4 hPa South 10.3 km/h 25.9 km/h 84 % 0 mm
07:52 -12.7 °C -14 °C 34178.3 hPa South 15.6 km/h 25.9 km/h 85 % 0 mm
07:57 -12.7 °C -14.1 °C 34178.3 hPa South 18.2 km/h 23.3 km/h 85 % 0 mm
08:02 -12.7 °C -14.1 °C 34178.3 hPa SSW 7.7 km/h 23.3 km/h 85 % 0 mm
08:12 -12.7 °C -14.1 °C 34178.3 hPa SSW 12.9 km/h 25.9 km/h 84 % 0 mm
08:17 -12.6 °C -14.1 °C 34178.3 hPa SSW 12.9 km/h 31.1 km/h 84 % 0 mm
08:22 -12.6 °C -14.1 °C 34164.7 hPa SW 15.6 km/h 31.1 km/h 83 % 0 mm
08:27 -12.6 °C -14.1 °C 34164.7 hPa SSW 20.8 km/h 33.6 km/h 83 % 0 mm
08:32 -12.6 °C -14.1 °C 34154.6 hPa SSW 15.6 km/h 33.6 km/h 83 % 0 mm
08:37 -12.5 °C -14.1 °C 34154.6 hPa SSW 23.3 km/h 41.4 km/h 82 % 0 mm
08:42 -12.4 °C -14.1 °C 34154.6 hPa SSW 31.1 km/h 41.4 km/h 82 % 0 mm
08:47 -12.3 °C -14.1 °C 34154.6 hPa South 28.5 km/h 41.4 km/h 81 % 0 mm
08:52 -12.3 °C -14 °C 34154.6 hPa SW 20.8 km/h 41.4 km/h 81 % 0 mm
09:02 -12.2 °C -14 °C 34144.4 hPa SSW 28.5 km/h 41.4 km/h 80 % 0 mm
09:12 -12.1 °C -14.2 °C 34144.4 hPa SSW 20.8 km/h 46.7 km/h 78 % 0 mm
09:17 -12.1 °C -14.2 °C 34144.4 hPa SSE 36.2 km/h 46.7 km/h 78 % 0 mm
09:22 -12.1 °C -14.3 °C 34144.4 hPa South 28.5 km/h 46.7 km/h 77 % 0 mm
09:27 -12.1 °C -14.3 °C 34130.9 hPa South 36.2 km/h 46.7 km/h 76 % 0 mm
09:32 -12.1 °C -14.2 °C 34130.9 hPa SSW 10.3 km/h 46.7 km/h 77 % 0 mm
09:37 -12 °C -14.2 °C 34130.9 hPa SSW 20.8 km/h 46.7 km/h 77 % 0 mm
09:42 -11.9 °C -14.2 °C 34130.9 hPa South 18.2 km/h 46.7 km/h 76 % 0 mm
09:47 -11.9 °C -14.2 °C 34130.9 hPa SSW 20.8 km/h 38.8 km/h 76 % 0 mm
09:52 -11.9 °C -14.2 °C 34130.9 hPa SSW 12.9 km/h 38.8 km/h 76 % 0 mm
09:57 -11.9 °C -14.2 °C 34130.9 hPa South 20.8 km/h 38.8 km/h 76 % 0 mm
10:02 -11.8 °C -14.1 °C 34120.7 hPa SSW 23.3 km/h 38.8 km/h 76 % 0 mm
10:12 -11.8 °C -14.1 °C 34107.2 hPa SSE 25.9 km/h 38.8 km/h 76 % 0 mm
10:17 -11.8 °C -14.2 °C 34107.2 hPa SSE 12.9 km/h 44.1 km/h 75 % 0 mm
10:22 -11.8 °C -14.3 °C 34107.2 hPa SSW 31.1 km/h 44.1 km/h 74 % 0 mm
10:27 -11.8 °C -14.2 °C 34097 hPa SSW 15.6 km/h 49.2 km/h 75 % 0 mm
10:32 -11.8 °C -14.2 °C 34097 hPa SE 41.4 km/h 49.2 km/h 75 % 0 mm
10:42 -11.7 °C -14.1 °C 34086.9 hPa SE 18.2 km/h 49.2 km/h 75 % 0 mm
10:47 -11.7 °C -14.1 °C 34097 hPa SSW 31.1 km/h 57 km/h 75 % 0 mm
10:52 -11.7 °C -14.1 °C 34086.9 hPa South 25.9 km/h 57 km/h 75 % 0 mm
11:02 -11.7 °C -14.1 °C 34073.3 hPa South 20.8 km/h 49.2 km/h 75 % 0 mm
11:12 -11.6 °C -14 °C 34063.2 hPa SSW 31.1 km/h 49.2 km/h 75 % 0 mm
11:17 -11.6 °C -14 °C 34063.2 hPa SSW 28.5 km/h 57 km/h 75 % 0 mm
11:22 -11.6 °C -13.8 °C 34063.2 hPa SSE 41.4 km/h 57 km/h 76 % 0 mm
11:27 -11.6 °C -13.8 °C 34049.6 hPa SSE 25.9 km/h 62.1 km/h 76 % 0 mm
11:32 -11.5 °C -13.8 °C 34049.6 hPa South 23.3 km/h 62.1 km/h 76 % 0 mm
11:42 -11.2 °C -13.7 °C 34039.5 hPa South 49.2 km/h 62.1 km/h 74 % 0 mm
11:47 -11.1 °C -13.4 °C 34039.5 hPa SSW 33.6 km/h 57 km/h 75 % 0 mm
11:52 -11 °C -13.5 °C 34029.3 hPa SSW 23.3 km/h 57 km/h 74 % 0 mm
11:57 -11 °C -13.5 °C 34029.3 hPa SSW 41.4 km/h 69.8 km/h 74 % 0 mm
12:02 -10.9 °C -13.4 °C 34029.3 hPa SW 44.1 km/h 69.8 km/h 74 % 0 mm
12:07 -10.9 °C -13.6 °C 34029.3 hPa SSW 59.5 km/h 64.7 km/h 73 % 0 mm
12:12 -10.9 °C -13.5 °C 34029.3 hPa SSW 38.8 km/h 64.7 km/h 73 % 0 mm
12:17 -10.9 °C -13.6 °C 34029.3 hPa South 54.4 km/h 67.3 km/h 73 % 0 mm
12:22 -11 °C -13.4 °C 34029.3 hPa SSW 36.2 km/h 67.3 km/h 75 % 0 mm
12:32 -11.1 °C -13.5 °C 34029.3 hPa SSW 36.2 km/h 75.2 km/h 75 % 0 mm
12:37 -11.1 °C -13.4 °C 34015.8 hPa SSW 28.5 km/h 59.5 km/h 75 % 0 mm
12:42 -11.1 °C -13.3 °C 34015.8 hPa SSW 46.7 km/h 59.5 km/h 76 % 0 mm
12:52 -11 °C -13.4 °C 34005.6 hPa SSW 49.2 km/h 62.1 km/h 75 % 0 mm
13:02 -10.9 °C -13.4 °C 33992.1 hPa SW 46.7 km/h 62.1 km/h 74 % 0 mm
13:12 -10.7 °C -13.2 °C 33981.9 hPa SW 49.2 km/h 62.1 km/h 74 % 0 mm
13:17 -10.7 °C -13.2 °C 33981.9 hPa SSW 54.4 km/h 62.1 km/h 74 % 0 mm
13:22 -10.6 °C -13.2 °C 33981.9 hPa SSW 38.8 km/h 62.1 km/h 73 % 0 mm
13:27 -10.5 °C -13.3 °C 33971.7 hPa SW 49.2 km/h 62.1 km/h 71 % 0 mm
13:32 -10.4 °C -13.4 °C 33958.2 hPa SW 64.7 km/h 72.6 km/h 70 % 0 mm
13:37 -10.4 °C -13.4 °C 33958.2 hPa SW 62.1 km/h 82.9 km/h 70 % 0 mm
13:42 -10.3 °C -13.6 °C 33958.2 hPa SW 57 km/h 82.9 km/h 68 % 0 mm
13:47 -10.4 °C -13.6 °C 33958.2 hPa SW 51.8 km/h 82.9 km/h 68 % 0 mm
13:52 -10.4 °C -13.7 °C 33958.2 hPa SW 49.2 km/h 82.9 km/h 67 % 0 mm
13:57 -10.4 °C -13.7 °C 33948 hPa SW 62.1 km/h 82.9 km/h 67 % 0 mm
14:02 -10.4 °C -13.7 °C 33948 hPa SW 69.8 km/h 82.9 km/h 67 % 0 mm
14:12 -10.4 °C -13.7 °C 33937.9 hPa SW 59.5 km/h 80.3 km/h 67 % 0 mm
14:17 -10.4 °C -13.6 °C 33937.9 hPa SSW 38.8 km/h 80.3 km/h 68 % 0 mm
14:22 -10.3 °C -13.7 °C 33937.9 hPa SW 51.8 km/h 85.5 km/h 67 % 0 mm
14:32 -10.3 °C -13.8 °C 33924.3 hPa SW 49.2 km/h 85.5 km/h 66 % 0 mm
14:42 -10.3 °C -13.7 °C 33924.3 hPa SSW 49.2 km/h 82.9 km/h 67 % 0 mm
14:47 -10.4 °C -13.6 °C 33924.3 hPa SW 54.4 km/h 82.9 km/h 68 % 0 mm
14:52 -10.4 °C -13.6 °C 33924.3 hPa SW 57 km/h 82.9 km/h 68 % 0 mm
14:57 -10.4 °C -13.8 °C 33924.3 hPa SW 49.2 km/h 82.9 km/h 67 % 0 mm
15:02 -10.4 °C -13.8 °C 33924.3 hPa SSW 46.7 km/h 67.3 km/h 67 % 0 mm
15:12 -10.4 °C -13.7 °C 33914.2 hPa SW 67.3 km/h 95.8 km/h 68 % 0 mm
15:17 -10.4 °C -13.7 °C 33914.2 hPa SW 38.8 km/h 95.8 km/h 68 % 0 mm
15:22 -10.4 °C -13.7 °C 33914.2 hPa SW 62.1 km/h 93.2 km/h 68 % 0 mm
15:32 -10.4 °C -13.7 °C 33900.6 hPa SW 72.6 km/h 93.2 km/h 68 % 0 mm
15:37 -10.5 °C -13.6 °C 33900.6 hPa SSW 38.8 km/h 90.6 km/h 69 % 0 mm
15:42 -10.4 °C -13.7 °C 33890.5 hPa SW 46.7 km/h 90.6 km/h 68 % 0 mm
15:47 -10.4 °C -13.7 °C 33890.5 hPa SSW 38.8 km/h 90.6 km/h 68 % 0 mm
15:52 -10.5 °C -13.6 °C 33890.5 hPa SW 51.8 km/h 88 km/h 69 % 0 mm
15:57 -10.5 °C -13.6 °C 33890.5 hPa SW 46.7 km/h 88 km/h 69 % 0 mm
16:02 -10.5 °C -13.6 °C 33890.5 hPa SW 31.1 km/h 85.5 km/h 69 % 0 mm
16:12 -10.6 °C -13.7 °C 33880.3 hPa SSW 67.3 km/h 82.9 km/h 69 % 0 mm
16:17 -11.6 °C -13.4 °C 33924.3 hPa NW 62.1 km/h 85.5 km/h 80 % 12.7 mm
16:22 -12.4 °C -13.8 °C 33914.2 hPa WSW 51.8 km/h 113.9 km/h 85 % 12.7 mm
16:32 -12.6 °C -13.8 °C 33914.2 hPa WSW 72.6 km/h 113.9 km/h 86 % 45.72 mm
16:37 -12.7 °C -13.8 °C 33914.2 hPa WSW 33.6 km/h 98.3 km/h 87 % 45.72 mm
16:42 -12.7 °C -13.9 °C 33900.6 hPa WSW 57 km/h 93.2 km/h 86 % 45.72 mm
16:52 -12.4 °C -14.1 °C 33900.6 hPa SSW 33.6 km/h 90.6 km/h 82 % 50.8 mm
16:57 -12.4 °C -13.9 °C 33890.5 hPa SW 28.5 km/h 80.3 km/h 83 % 50.8 mm
17:02 -12.3 °C -13.8 °C 33890.5 hPa SW 36.2 km/h 80.3 km/h 83 % 50.8 mm
17:12 -12.2 °C -13.6 °C 33890.5 hPa SW 44.1 km/h 69.8 km/h 84 % 50.8 mm
17:17 -12.2 °C -13.7 °C 33890.5 hPa SSW 23.3 km/h 69.8 km/h 83 % 38.1 mm
17:22 -12.1 °C -13.7 °C 33890.5 hPa SW 59.5 km/h 62.1 km/h 82 % 38.1 mm
17:27 -12 °C -13.7 °C 33880.3 hPa WSW 59.5 km/h 69.8 km/h 81 % 7.62 mm
17:32 -12 °C -13.6 °C 33880.3 hPa SW 38.8 km/h 69.8 km/h 82 % 7.62 mm
17:37 -12 °C -13.6 °C 33890.5 hPa SW 38.8 km/h 77.7 km/h 82 % 0 mm
17:42 -11.9 °C -13.7 °C 33880.3 hPa SW 33.6 km/h 77.7 km/h 81 % 0 mm
17:47 -12 °C -13.7 °C 33880.3 hPa SSW 28.5 km/h 72.6 km/h 81 % 0 mm
17:52 -12 °C -13.8 °C 33880.3 hPa SW 36.2 km/h 85.5 km/h 80 % 0 mm
18:02 -12 °C -13.8 °C 33880.3 hPa West 20.8 km/h 85.5 km/h 80 % 0 mm
18:12 -12 °C -13.9 °C 33866.8 hPa SW 36.2 km/h 77.7 km/h 79 % 0 mm
18:17 -12 °C -13.8 °C 33866.8 hPa WSW 36.2 km/h 77.7 km/h 80 % 0 mm
18:22 -12.1 °C -13.9 °C 33866.8 hPa SW 38.8 km/h 77.7 km/h 80 % 0 mm
18:32 -12.1 °C -13.9 °C 33866.8 hPa SSW 25.9 km/h 57 km/h 80 % 0 mm
18:37 -12.1 °C -14 °C 33866.8 hPa SW 44.1 km/h 69.8 km/h 79 % 0 mm
18:42 -12 °C -14.1 °C 33866.8 hPa SW 33.6 km/h 69.8 km/h 78 % 0 mm
18:52 -12.1 °C -14.1 °C 33866.8 hPa SW 46.7 km/h 69.8 km/h 78 % 0 mm
18:57 -12 °C -14.1 °C 33880.3 hPa WSW 33.6 km/h 67.3 km/h 78 % 0 mm
19:02 -12.1 °C -14 °C 33890.5 hPa WSW 46.7 km/h 62.1 km/h 79 % 0 mm
19:12 -12.3 °C -14.1 °C 33890.5 hPa WSW 44.1 km/h 64.7 km/h 80 % 0 mm
19:17 -12.3 °C -14.1 °C 33880.3 hPa SW 28.5 km/h 90.6 km/h 81 % 0 mm
19:22 -12.5 °C -14.1 °C 33890.5 hPa SW 41.4 km/h 90.6 km/h 82 % 0 mm
19:32 -12.7 °C -14.2 °C 33900.6 hPa West 33.6 km/h 67.3 km/h 83 % 0 mm
19:37 -12.9 °C -14.3 °C 33890.5 hPa WSW 80.3 km/h 80.3 km/h 84 % 7.62 mm
19:42 -13.1 °C -14.4 °C 33880.3 hPa WSW 25.9 km/h 80.3 km/h 85 % 7.62 mm
19:47 -13.2 °C -14.4 °C 33880.3 hPa WSW 41.4 km/h 98.3 km/h 86 % 12.7 mm
19:52 -13.2 °C -14.4 °C 33880.3 hPa SW 31.1 km/h 98.3 km/h 86 % 12.7 mm
19:57 -13.1 °C -14.4 °C 33890.5 hPa West 25.9 km/h 72.6 km/h 85 % 12.7 mm
20:02 -13.1 °C -14.4 °C 33890.5 hPa WSW 28.5 km/h 72.6 km/h 85 % 12.7 mm
20:12 -13.2 °C -14.4 °C 33890.5 hPa SSW 23.3 km/h 64.7 km/h 86 % 12.7 mm
20:22 -13.3 °C -14.3 °C 33890.5 hPa West 31.1 km/h 67.3 km/h 89 % 12.7 mm
20:27 -13.3 °C -14.3 °C 33890.5 hPa WSW 33.6 km/h 57 km/h 89 % 20.32 mm
20:32 -13.4 °C -14.2 °C 33890.5 hPa WSW 31.1 km/h 64.7 km/h 90 % 20.32 mm
20:42 -13.4 °C -14.2 °C 33890.5 hPa SSW 31.1 km/h 64.7 km/h 91 % 25.4 mm
20:47 -13.4 °C -14.2 °C 33890.5 hPa West 31.1 km/h 64.7 km/h 91 % 33.02 mm
20:52 -13.7 °C -14.8 °C 33900.6 hPa West 36.2 km/h 64.7 km/h 88 % 33.02 mm
20:57 -13.9 °C -15.1 °C 33900.6 hPa WSW 62.1 km/h 85.5 km/h 87 % 38.1 mm
21:02 -14.1 °C -15.1 °C 33900.6 hPa WSW 49.2 km/h 85.5 km/h 88 % 38.1 mm
21:12 -14.4 °C -15.3 °C 33900.6 hPa West 44.1 km/h 90.6 km/h 89 % 38.1 mm
21:17 -14.4 °C -15.2 °C 33900.6 hPa West 25.9 km/h 82.9 km/h 90 % 45.72 mm
21:22 -14.4 °C -15.3 °C 33900.6 hPa WSW 12.9 km/h 67.3 km/h 90 % 45.72 mm
21:27 -14.4 °C -15.3 °C 33900.6 hPa West 23.3 km/h 59.5 km/h 90 % 38.1 mm
21:32 -14.4 °C -15.3 °C 33900.6 hPa SW 33.6 km/h 57 km/h 90 % 38.1 mm
21:42 -14.5 °C -15.3 °C 33914.2 hPa WSW 57 km/h 59.5 km/h 90 % 38.1 mm
21:47 -14.6 °C -15.4 °C 33914.2 hPa West 33.6 km/h 69.8 km/h 90 % 38.1 mm
21:52 -14.6 °C -15.4 °C 33914.2 hPa SW 18.2 km/h 69.8 km/h 90 % 38.1 mm
21:57 -14.6 °C -15.4 °C 33924.3 hPa West 41.4 km/h 69.8 km/h 90 % 33.02 mm
22:02 -14.6 °C -15.4 °C 33924.3 hPa West 25.9 km/h 62.1 km/h 90 % 33.02 mm
22:07 -14.6 °C -15.6 °C 33924.3 hPa WSW 36.2 km/h 62.1 km/h 89 % 38.1 mm
22:12 -14.7 °C -15.6 °C 33937.9 hPa West 46.7 km/h 62.1 km/h 89 % 38.1 mm
22:17 -14.7 °C -15.5 °C 33924.3 hPa WSW 28.5 km/h 64.7 km/h 90 % 45.72 mm
22:22 -14.7 °C -15.6 °C 33924.3 hPa SW 36.2 km/h 64.7 km/h 89 % 45.72 mm
22:32 -14.7 °C -15.7 °C 33914.2 hPa SW 38.8 km/h 64.7 km/h 89 % 50.8 mm
22:37 -14.7 °C -15.7 °C 33914.2 hPa SW 49.2 km/h 64.7 km/h 89 % 45.72 mm
22:42 -14.7 °C -15.7 °C 33914.2 hPa SW 31.1 km/h 64.7 km/h 89 % 45.72 mm
22:52 -14.7 °C -15.7 °C 33900.6 hPa SW 31.1 km/h 59.5 km/h 88 % 38.1 mm
22:57 -14.7 °C -15.7 °C 33900.6 hPa SW 31.1 km/h 51.8 km/h 88 % 33.02 mm
23:02 -14.7 °C -15.8 °C 33900.6 hPa WSW 33.6 km/h 54.4 km/h 87 % 33.02 mm
23:12 -14.7 °C -15.8 °C 33900.6 hPa WSW 28.5 km/h 54.4 km/h 87 % 20.32 mm
23:17 -14.7 °C -15.8 °C 33900.6 hPa SSW 25.9 km/h 54.4 km/h 87 % 7.62 mm
23:22 -14.6 °C -15.8 °C 33900.6 hPa SW 25.9 km/h 54.4 km/h 86 % 7.62 mm
23:27 -14.6 °C -15.8 °C 33890.5 hPa SW 33.6 km/h 49.2 km/h 86 % 0 mm
23:32 -14.6 °C -15.8 °C 33890.5 hPa SW 41.4 km/h 49.2 km/h 86 % 0 mm
23:37 -14.6 °C -15.8 °C 33900.6 hPa SSW 31.1 km/h 54.4 km/h 86 % 0 mm
23:42 -14.6 °C -15.8 °C 33900.6 hPa SW 33.6 km/h 54.4 km/h 85 % 0 mm
23:52 -14.6 °C -15.8 °C 33900.6 hPa SSW 25.9 km/h 51.8 km/h 85 % 0 mm
23:57 -14.6 °C -15.9 °C 33890.5 hPa WSW 31.1 km/h 51.8 km/h 84 % 0 mm
Meteo18
Compliments of Weather Underground - 4 mb

Script developed by  Jim McMurry - jmcmurry@mwt.net Adapted for the template by  Wim van der Kuil - Leuven-Template.eu

You find our weather info also at:

European Weather Network

Weather Underground

Equipment we use:

Weather-station
Davis Vue

Weather-program
Meteobridge

Weather-server
Raspberry PI 2 B+

Provider
1 and 1

Davis Vue

Meteobridge

Raspberry PI 2 B+

1 and 1